Location: Draži?
(49.3058°N, 14.3830°E)
Time: 14:26:57
(UTC+00:00)

Daily predictions for brighter satellites

Satellite Brightness Start Highest point End
(mag) Time Altitude Azimuth Time Altitude Azimuth Time Altitude Azimuth
Cosmos 1452 Rocket 3.5 19:42:19 10° SSW 19:47:33 79° ESE 19:52:50 10° NNE
MetOp-B 4.2 19:43:52 10° SSE 19:49:14 87° ENE 19:54:38 10° NNW
Cosmos 1110 Rocket 4.2 19:46:00 10° S 19:51:08 56° ESE 19:56:20 10° NNE
X-37B 1.9 19:49:28 10° WSW 19:51:43 22° SSW 19:53:59 10° SE
Cosmos 2154 Rocket 4.2 19:46:36 10° N 19:52:45 58° ENE 19:58:50 10° SSE
Cosmos 2228 3.0 19:53:27 10° N 19:57:41 67° ENE 20:01:54 10° SSE
Cosmos 968 Rocket 4.0 19:56:14 10° NNW 20:01:19 49° ENE 20:06:23 10° SE
Cosmos 1697 Rocket 2.8 19:56:25 10° NNW 20:02:04 83° WSW 20:07:41 10° SSE
Cosmos 1980 Rocket 2.6 19:57:03 10° NNW 20:02:42 58° ENE 20:08:16 10° SE
SL-16 R/B 3.9 20:00:18 10° N 20:04:48 23° NE 20:09:17 10° E
Cosmos 2369 3.9 20:05:15 10° NNW 20:11:01 72° ENE 20:16:35 11° SE
ATLAS 5 CENTAUR R/B 2.9 20:09:31 10° SSE 20:11:34 15° ESE 20:13:52 10° ENE
Cosmos 2058 Rocket 4.2 20:08:21 10° N 20:12:19 31° ENE 20:16:04 11° SE
CZ-2C R/B 4.3 20:12:00 10° NNE 20:16:15 38° E 20:20:24 10° SSE
Cosmos 2344 4.3 20:07:42 10° NW 20:16:27 89° NE 20:28:18 11° SE
Meteor 2-1 Rocket 4.2 20:11:04 10° N 20:16:36 77° ENE 20:22:10 10° SSE
Cosmos 1408 3.9 20:14:47 12° SE 20:17:08 22° E 20:19:52 10° NE
Resurs 01 Rocket 3.3 20:13:23 10° SSW 20:17:19 31° W 20:21:18 10° NNW
COSMOS 2406 3.3 20:15:36 10° S 20:21:16 61° ESE 20:26:56 10° NE
SJ 16-02 3.7 20:19:56 10° NNE 20:22:19 14° NE 20:24:42 10° E
Cosmos 2184 Rocket 4.3 20:17:27 10° NNW 20:23:36 67° W 20:29:45 10° S
H-2A R/B 3.9 20:21:06 10° N 20:25:10 36° WNW 20:29:15 10° SW
Cosmos 1833 Rocket 2.9 20:21:18 10° SSW 20:26:55 79° WNW 20:32:34 10° NNE
Cosmos 1867 3.6 20:24:22 10° NW 20:29:53 89° NE 20:34:38 14° SE
Cosmos 1703 4.2 20:29:48 10° SSW 20:33:31 47° WNW 20:37:16 10° N
Cosmos 1825 3.8 20:33:23 14° ESE 20:35:15 19° E 20:37:55 10° NE
Cosmos 1606 Rocket 3.6 20:31:20 10° NNW 20:35:41 77° W 20:39:49 11° S
USA 245 4.1 20:32:39 10° S 20:36:17 39° WSW 20:39:15 10° NNW
Cosmos 2322 Rocket 3.7 20:34:15 10° NNW 20:39:07 28° NE 20:43:59 10° ESE
CZ-4B R/B 3.9 20:42:48 10° NNW 20:44:52 18° WNW 20:46:57 10° WSW
USA 234 4.1 20:39:27 10° E 20:45:45 51° NNE 20:52:03 10° WNW
GP-B 3.8 20:41:52 10° NNE 20:46:03 39° E 20:49:00 17° SSE
ARIANE 5 R/B 2.6 20:44:14 16° SSE 20:47:47 77° ENE 20:52:13 10° NNW
Terra 1.9 20:44:04 14° SSE 20:48:14 81° WSW 20:53:02 10° NNW
SPOT 5 3.3 20:46:57 11° S 20:51:04 50° W 20:55:18 10° NNW
Cosmos 2278 3.8 20:47:13 10° NNW 20:52:59 79° ENE 20:57:25 17° SSE
Cosmos 2341 Rocket 4.0 20:47:46 10° N 20:54:08 77° E 20:59:17 16° SSE
USA 276 1.9 20:51:46 10° W 20:54:47 78° SSW 20:56:54 18° ESE
FALCON 9 DEB 2.9 20:52:47 10° WNW 20:56:02 70° SSW 20:58:00 22° SE
Cosmos 1726 Rocket 3.9 20:53:18 10° NNW 20:57:34 59° W 21:01:15 14° S
Cosmos 2333 Rocket 4.3 20:55:11 10° N 20:59:26 20° NE 21:03:41 10° E
Cosmos 1992 Rocket 4.3 20:57:38 15° S 21:01:45 47° ESE 21:06:46 10° NNE
Meteor 1-11 4.2 20:58:41 11° S 21:04:05 79° E 21:09:41 10° NNE
Cosmos 2082 Rocket 2.2 20:59:21 10° SSW 21:05:04 90° SE 21:10:48 10° NNE
Cosmos 1486 Rocket 4.1 21:00:51 10° NNW 21:06:05 74° ENE 21:09:45 20° SSE
Cosmos 1633 4.1 21:05:14 17° ESE 21:06:16 20° E 21:08:50 10° NE
Okean 1-7 Rocket 4.1 21:03:33 20° SSE 21:06:17 45° E 21:10:37 10° NNE
ASTEX 1 3.5 21:03:09 10° NNE 21:08:08 62° E 21:11:40 19° S
Helios 1A Rocket 4.2 21:04:55 11° SSW 21:08:30 35° W 21:12:18 10° NNW
SAR-Lupe-1 4.4 21:07:11 10° NNE 21:10:40 46° E 21:12:24 25° SSE
TIMED 4.5 21:07:20 10° SSW 21:11:42 89° E 21:16:05 10° NNE
Cosmos 2360 Rocket 3.5 21:08:41 10° NNW 21:13:46 32° NE 21:18:47 10° ESE
Cosmos-2242 4.2 21:12:16 10° N 21:16:04 30° ENE 21:18:22 19° ESE
Cosmos 1812 Rocket 4.4 21:12:19 10° N 21:16:32 39° ENE 21:19:01 21° SE
Cosmos 1606 4.4 21:14:29 10° NNE 21:17:33 22° ENE 21:19:29 16° ESE
Cosmos 1932 4.4 21:12:45 10° SSW 21:18:58 77° SE 21:25:19 10° NE
Cosmos 2181 Rocket 4.0 21:17:08 17° S 21:22:03 75° E 21:28:19 10° NNE
ERS-1 Rocket 4.4 21:22:07 10° SSW 21:26:36 32° W 21:31:05 10° NNW
Cosmos 1892 3.1 21:26:27 17° SSW 21:29:15 60° WNW 21:33:01 10° N
Cosmos 1602 Rocket 4.0 21:28:28 26° SSE 21:30:31 45° E 21:34:39 10° NNE
Cosmos 1354 Rocket 4.2 21:30:39 10° NNW 21:35:57 67° ENE 21:39:12 24° SE
Cosmos 1503 Rocket 4.0 21:39:12 10° NNW 21:44:32 89° WSW 21:47:32 26° SSE
Spot 4 4.1 21:42:42 25° SE 21:45:22 61° ENE 21:50:08 10° N
Cosmos 1980 Rocket 3.6 21:41:37 10° NW 21:46:20 27° WSW 21:50:07 14° SSW
ALOS 2 3.5 21:44:13 22° ESE 21:46:33 39° ENE 21:50:39 10° N
Nadezhda 3 Rocket 4.4 21:43:20 23° SSE 21:46:51 48° E 21:52:44 10° NNE
ERS-2 4.4 21:46:49 10° ENE 21:48:11 12° E 21:48:35 12° E
Cosmos 2219 Rocket 3.8 21:44:36 10° NNW 21:49:31 29° NE 21:54:24 10° ESE
SL-16 R/B 2.2 21:43:55 10° NNW 21:49:38 84° WSW 21:52:57 26° SSE
Cosmos 1777 Rocket 4.4 21:44:28 10° NNW 21:49:44 59° ENE 21:52:54 23° SE
Cosmos 1408 4.4 21:48:47 10° SW 21:51:42 26° WNW 21:54:39 10° NNW
Cosmos 1626 Rocket 3.6 21:50:06 23° SSW 21:52:44 73° W 21:57:07 10° N
USA 267 3.4 21:46:46 10° ENE 21:53:06 49° SE 21:59:24 10° SSW
H-2A R/B 4.4 21:51:17 10° NNE 21:55:07 33° E 21:56:24 27° SE
Cosmos 2058 3.9 21:53:50 26° SE 21:55:12 33° E 21:58:58 10° NNE
ATLAS 5 CENTAUR R/B 1.6 21:51:39 10° SW 21:55:23 66° NW 21:59:42 10° NE
SJ 16-02 1.3 21:57:08 10° NNW 22:01:35 87° ENE 22:03:35 33° SSE
SL-4 R/B 2.0 22:04:44 40° SE 22:04:44 40° SE 22:07:54 10° ENE
Cosmos 1825 Rocket 4.0 22:04:05 31° SE 22:05:38 45° E 22:09:49 10° NNE
Meteor 2-20 4.4 22:03:59 25° S 22:07:44 81° E 22:13:51 10° NNE
Cosmos 1825 3.4 22:08:00 18° SW 22:10:20 36° WNW 22:13:51 10° N
Cosmos 2221 3.8 22:09:26 10° N 22:13:22 31° ENE 22:15:26 21° ESE
Cosmos 2322 Rocket 2.3 22:18:00 10° NNW 22:23:38 65° WSW 22:26:28 30° S
Terra 4.3 22:25:26 10° WSW 22:26:46 11° W 22:28:06 10° WNW
USA 234 3.2 22:22:04 11° ESE 22:28:29 90° NE 22:35:06 10° WNW
USA 276 4.3 22:27:49 10° W 22:28:42 15° WSW 22:28:42 15° WSW
Cosmos 1934 Rocket 4.0 22:25:14 10° N 22:31:21 74° E 22:34:46 28° SSE
Meteor 2-20 Rocket 4.4 22:33:21 27° S 22:36:54 86° W 22:43:03 10° N
BREEZE-M DEB (TANK) 4.0 22:34:21 10° W 22:38:00 73° SSW 22:53:24 10° ESE
Cosmos 1633 4.0 22:39:00 20° WSW 22:40:35 29° WNW 22:43:40 10° N
Cosmos 2333 Rocket 2.3 22:38:52 10° NNW 22:44:41 79° ENE 22:48:05 26° SE
Cosmos 1758 Rocket 4.4 22:42:24 23° SW 22:44:45 43° WNW 22:48:59 10° N
Cosmos 1933 4.5 22:43:47 10° N 22:47:29 35° ENE 22:49:07 25° ESE
USA 290 4.0 22:44:40 10° N 22:47:30 27° ENE 22:48:53 20° E
Cosmos 2082 Rocket 4.5 22:45:32 10° W 22:49:57 22° NW 22:54:21 10° N
COSMOS 2487 3.2 22:52:54 31° E 22:52:54 31° E 22:55:31 10° NE
Cosmos 1812 4.4 22:49:32 10° NNE 22:52:44 25° ENE 22:54:29 18° ESE
Cosmos 1606 3.8 22:49:42 10° NNW 22:53:13 34° W 22:54:21 28° SW
Cosmos-2242 4.4 22:49:52 10° NNW 22:53:31 28° W 22:55:10 22° SW
Cosmos 990 Rocket 4.3 22:49:22 10° NNW 22:54:28 61° ENE 22:57:26 25° SE
ADEOS Rocket 3.7 22:53:13 26° S 22:57:39 62° W 23:05:24 10° NNW
Cosmos 2360 Rocket 2.5 22:52:31 10° NW 22:58:04 55° WSW 23:00:31 32° S
Cosmos 1339 Rocket 4.4 22:54:49 30° S 22:58:07 81° E 23:04:15 10° N
ISS -2.8 23:00:48 33° ESE 23:00:48 33° ESE 23:03:05 10° ENE
Cosmos 1340 Rocket 2.8 22:58:42 40° SSW 23:00:00 71° WNW 23:03:59 10° N
Gbstr 26 Del rocket 3.0 22:59:00 20° WSW 23:02:01 74° SSE 23:07:15 10° ENE
Meteor 2-3 Rocket 4.1 23:04:49 29° SSE 23:07:26 53° E 23:12:51 10° NNE
Cosmos 2333 4.2 23:01:59 10° NNW 23:07:46 72° WSW 23:10:38 31° SSE
Cosmos 1076 Rocket 4.0 23:09:44 34° SSE 23:11:13 51° E 23:15:28 10° NNE
BREEZE-M DEB (TANK) 2.7 23:12:24 49° S 23:12:39 51° SSE 23:18:20 10° ENE
SL-27 R/B 2.2 23:13:18 62° SSE 23:13:39 69° ESE 23:16:54 10° NNE
NOSS 3-2 (A) 4.0 23:13:40 29° SSE 23:15:37 37° ESE 23:21:18 10° NE
Cosmos 44 3.1 23:14:09 28° SW 23:16:34 80° NW 23:21:01 10° NE
Cosmos 1833 4.2 23:14:26 26° SW 23:17:43 79° WNW 23:23:21 10° NNE
Cosmos 1782 3.0 23:17:00 10° N 23:20:58 64° E 23:22:20 37° SE
ERS-2 2.3 23:18:21 10° N 23:21:55 61° WNW 23:22:56 40° SW
ALOS 2 4.0 23:21:37 22° WSW 23:23:01 25° W 23:26:41 10° NW
Lacrosse 4 Rocket 4.4 23:22:18 10° N 23:24:18 13° NNE 23:26:17 10° ENE
Cosmos 2237 Rocket 3.5 23:19:16 10° NNW 23:24:33 37° NE 23:29:46 10° ESE
Cosmos 1605 Rocket 4.1 23:18:35 10° NNW 23:25:00 74° W 23:28:27 29° S
CENTAUR R/B 3.1 23:22:31 29° SSE 23:25:00 42° ESE 23:31:27 10° NE
COSMOS 2428 2.7 23:25:19 10° NNW 23:31:05 89° ENE 23:34:37 24° SSE
Cosmos 2297 Rocket 3.9 23:29:19 15° SE 23:31:54 21° E 23:35:58 10° NE
Cosmos 2151 3.1 23:31:03 37° SSE 23:32:34 65° E 23:36:51 10° NNE
SL-16 R/B 4.1 23:29:49 10° WNW 23:32:50 15° W 23:34:48 13° WSW
Cosmos 2219 Rocket 2.3 23:28:17 10° NNW 23:33:55 64° WSW 23:36:40 30° S
USA 267 3.5 23:29:48 10° NE 23:36:19 71° NNW 23:42:49 10° WSW
SJ 16-02 3.6 23:37:54 10° WNW 23:39:25 12° W 23:40:31 11° WSW
ATLAS 5 CENTAUR R/B 4.2 23:37:50 10° WNW 23:40:49 19° NNW 23:44:08 10° NNE
Cosmos 2322 3.8 23:37:28 10° NW 23:43:02 59° WSW 23:45:45 30° S
SL-4 R/B 2.0 23:40:16 10° W 23:43:48 68° N 23:47:35 10° ENE
Cosmos 1898 Rocket 3.4 23:39:08 10° NNW 23:44:20 80° WSW 23:47:02 29° SSE
Cosmos 1151 Rocket 4.3 23:41:24 10° N 23:45:28 35° ENE 23:48:24 17° SE
Cosmos 1937 Rocket 3.5 23:44:16 10° NNW 23:49:33 84° ENE 23:52:46 24° SSE
Cosmos 2221 3.8 23:47:03 10° NNW 23:50:50 29° W 23:52:14 24° WSW
COSMOS 2455 3.3 23:46:03 10° NNW 23:52:03 63° NE 23:58:00 10° SE
PSLV R/B 4.4 23:48:38 10° N 23:53:13 48° WNW 23:55:36 25° SW
Cosmos 1184 Rocket 3.4 23:53:58 10° N 23:56:55 45° ENE 23:57:49 33° ESE
